�������l�o���
Date,Time,MP-1(��Sv/h),MP-2(��Sv/h),MP-3(��Sv/h),MP-4(��Sv/h),MP-5(��Sv/h),MP-6(��Sv/h),MP-7(��Sv/h),MP-8(��Sv/h),����,����(m/s),���J
2023/07/19,00:00,0.535,0.816,0.496,0.986,0.725,0.324,0.571,0.532,�k�k��,2.6,��
2023/07/19,00:10,0.534,0.818,0.496,0.985,0.723,0.324,0.571,0.533,�k,2.6,��
2023/07/19,00:20,0.533,0.818,0.496,0.983,0.722,0.324,0.569,0.532,�k�k��,2.6,��
2023/07/19,00:30,0.534,0.818,0.496,0.986,0.725,0.325,0.570,0.534,�k�k��,1.7,��
2023/07/19,00:40,0.534,0.818,0.498,0.986,0.725,0.323,0.569,0.534,�k,0.9,��
2023/07/19,00:50,0.534,0.816,0.496,0.985,0.725,0.323,0.571,0.533,�k��,1.5,��
2023/07/19,01:00,0.534,0.817,0.496,0.985,0.726,0.324,0.570,0.535,�k,0.9,��
2023/07/19,01:10,0.533,0.817,0.497,0.986,0.724,0.324,0.570,0.536,�k�k��,0.9,��
2023/07/19,01:20,0.535,0.816,0.495,0.988,0.723,0.324,0.571,0.534,�k�k��,1.2,��
2023/07/19,01:30,0.532,0.817,0.494,0.985,0.726,0.323,0.571,0.534,�k�k��,0.6,��
2023/07/19,01:40,0.534,0.816,0.496,0.989,0.725,0.324,0.570,0.535,�k,0.6,��
2023/07/19,01:50,0.535,0.819,0.496,0.984,0.724,0.325,0.571,0.533,��,0.9,��
2023/07/19,02:00,0.535,0.817,0.495,0.985,0.724,0.324,0.570,0.535,�쐼,0.8,��
2023/07/19,02:10,0.535,0.817,0.494,0.984,0.725,0.324,0.571,0.535,�쐼,0.6,��
2023/07/19,02:20,0.535,0.818,0.497,0.986,0.725,0.324,0.569,0.535,-,CALM,��
2023/07/19,02:30,0.535,0.817,0.498,0.984,0.723,0.324,0.572,0.534,�k�k��,0.9,��
2023/07/19,02:40,0.534,0.817,0.496,0.987,0.723,0.323,0.569,0.535,�k�k��,0.6,��
2023/07/19,02:50,0.536,0.817,0.496,0.986,0.724,0.324,0.571,0.535,�k�k��,0.9,��
2023/07/19,03:00,0.533,0.815,0.497,0.985,0.724,0.324,0.571,0.534,�k�k��,0.9,��
2023/07/19,03:10,0.536,0.819,0.495,0.986,0.726,0.324,0.571,0.535,�k��,0.9,��
2023/07/19,03:20,0.535,0.818,0.496,0.985,0.724,0.324,0.571,0.534,���k��,0.6,��
2023/07/19,03:30,0.535,0.817,0.496,0.985,0.726,0.325,0.570,0.535,-,CALM,��
2023/07/19,03:40,0.535,0.817,0.496,0.986,0.725,0.325,0.572,0.534,��쓌,0.9,��
2023/07/19,03:50,0.536,0.817,0.496,0.985,0.725,0.326,0.573,0.535,�k,0.9,��
2023/07/19,04:00,0.534,0.816,0.497,0.988,0.725,0.324,0.570,0.535,�k�k��,0.6,��
2023/07/19,04:10,0.535,0.817,0.496,0.984,0.722,0.324,0.572,0.535,�k,0.9,��
2023/07/19,04:20,0.534,0.817,0.497,0.985,0.726,0.324,0.571,0.536,�k,1.4,��
2023/07/19,04:30,0.537,0.815,0.496,0.987,0.726,0.325,0.572,0.535,�k�k��,1.2,��
2023/07/19,04:40,0.535,0.818,0.496,0.988,0.725,0.325,0.572,0.534,-,CALM,�L
2023/07/19,04:50,0.535,0.817,0.496,0.985,0.724,0.325,0.570,0.535,��,0.8,�L
2023/07/19,05:00,0.535,0.819,0.497,0.984,0.725,0.323,0.571,0.534,��,0.6,�L
2023/07/19,05:10,0.534,0.816,0.496,0.986,0.725,0.324,0.571,0.534,�쐼,0.8,�L
2023/07/19,05:20,0.536,0.818,0.498,0.985,0.725,0.325,0.572,0.535,���쐼,0.6,�L
2023/07/19,05:30,0.535,0.816,0.496,0.985,0.726,0.324,0.571,0.535,-,CALM,�L
2023/07/19,05:40,0.535,0.816,0.497,0.985,0.725,0.325,0.572,0.534,���쐼,0.8,�L
2023/07/19,05:50,0.533,0.817,0.497,0.987,0.726,0.325,0.572,0.535,���k��,0.6,�L
2023/07/19,06:00,0.534,0.819,0.497,0.987,0.726,0.324,0.571,0.535,�k�k��,1.2,��
2023/07/19,06:10,0.536,0.816,0.498,0.984,0.724,0.326,0.573,0.535,��쐼,2.0,�L
2023/07/19,06:20,0.535,0.815,0.495,0.987,0.722,0.326,0.570,0.533,���쐼,0.6,�L
2023/07/19,06:30,0.534,0.816,0.496,0.986,0.723,0.326,0.570,0.532,���쐼,2.6,�L
2023/07/19,06:40,0.525,0.799,0.490,0.979,0.713,0.324,0.566,0.533,��,1.9,�L
2023/07/19,06:50,0.524,0.798,0.490,0.972,0.710,0.324,0.565,0.531,��쓌,0.8,�L
2023/07/19,07:00,0.524,0.798,0.489,0.971,0.710,0.323,0.566,0.532,��,2.3,�L
2023/07/19,07:10,0.524,0.796,0.488,0.973,0.709,0.323,0.566,0.532,��쐼,1.5,�L
2023/07/19,07:20,0.523,0.795,0.488,0.973,0.707,0.322,0.566,0.530,�쐼,0.9,�L
2023/07/19,07:30,0.523,0.795,0.488,0.972,0.709,0.321,0.567,0.533,��,1.9,�L
2023/07/19,07:40,0.523,0.797,0.487,0.969,0.705,0.322,0.565,0.530,-,CALM,�L
2023/07/19,07:50,0.521,0.790,0.485,0.967,0.701,0.322,0.564,0.529,���쐼,1.7,�L
2023/07/19,08:00,0.519,0.787,0.483,0.964,0.701,0.322,0.563,0.532,��쐼,0.6,�L
2023/07/19,08:10,0.518,0.788,0.486,0.963,0.702,0.320,0.564,0.530,-,CALM,�L
2023/07/19,08:20,0.520,0.790,0.485,0.963,0.702,0.319,0.563,0.531,���k��,0.8,�L
2023/07/19,08:30,0.519,0.790,0.485,0.964,0.702,0.320,0.564,0.529,���k��,0.9,�L
2023/07/19,08:40,0.519,0.789,0.484,0.961,0.700,0.320,0.564,0.531,��,0.6,�L
2023/07/19,08:50,0.519,0.788,0.485,0.960,0.700,0.319,0.563,0.531,��쐼,1.1,�L
2023/07/19,09:00,0.518,0.786,0.483,0.962,0.698,0.319,0.564,0.530,-,CALM,�L
2023/07/19,09:10,0.517,0.786,0.481,0.959,0.698,0.320,0.563,0.529,-,CALM,�L
2023/07/19,09:20,0.516,0.783,0.483,0.958,0.698,0.319,0.563,0.531,�쐼,1.1,�L
2023/07/19,09:30,0.514,0.785,0.482,0.958,0.697,0.319,0.562,0.530,���k��,0.9,�L
2023/07/19,09:40,0.516,0.785,0.484,0.957,0.696,0.319,0.563,0.529,�쐼,1.1,�L
2023/07/19,09:50,0.515,0.782,0.484,0.955,0.698,0.318,0.562,0.530,-,CALM,�L
2023/07/19,10:00,0.518,0.784,0.485,0.957,0.694,0.318,0.562,0.529,-,CALM,��
2023/07/19,10:10,0.516,0.785,0.484,0.957,0.695,0.319,0.562,0.529,��,0.8,��
2023/07/19,10:20,0.515,0.784,0.483,0.958,0.696,0.319,0.564,0.527,��,0.6,��
2023/07/19,10:30,0.518,0.786,0.484,0.954,0.695,0.317,0.564,0.529,��,1.2,��
2023/07/19,10:40,0.516,0.786,0.484,0.956,0.696,0.318,0.564,0.531,�k��,0.9,��
2023/07/19,10:50,0.516,0.784,0.483,0.956,0.695,0.318,0.562,0.530,�k��,1.5,��
2023/07/19,11:00,0.515,0.785,0.485,0.954,0.694,0.317,0.562,0.529,��,1.2,��
2023/07/19,11:10,0.514,0.786,0.483,0.954,0.696,0.317,0.562,0.528,���k��,0.9,��
2023/07/19,11:20,0.518,0.785,0.484,0.953,0.698,0.317,0.561,0.528,��,1.4,��
2023/07/19,11:30,0.518,0.785,0.484,0.951,0.697,0.319,0.562,0.527,���쓌,1.5,��
2023/07/19,11:40,0.516,0.786,0.483,0.954,0.696,0.318,0.562,0.526,�쓌,1.7,��
2023/07/19,11:50,0.517,0.787,0.481,0.954,0.698,0.316,0.562,0.527,���쓌,2.2,��
2023/07/19,12:00,0.518,0.788,0.483,0.953,0.697,0.319,0.562,0.528,�쓌,2.3,��
2023/07/19,12:10,0.518,0.790,0.484,0.954,0.698,0.318,0.562,0.529,���쓌,2.6,��
2023/07/19,12:20,0.516,0.788,0.484,0.954,0.699,0.317,0.562,0.529,���쓌,2.0,��
2023/07/19,12:30,0.519,0.788,0.483,0.955,0.699,0.317,0.562,0.528,��쓌,1.7,��
2023/07/19,12:40,0.519,0.788,0.483,0.958,0.698,0.319,0.562,0.527,��쓌,2.3,��
2023/07/19,12:50,0.518,0.792,0.485,0.955,0.698,0.318,0.562,0.528,��쓌,2.0,��
2023/07/19,13:00,0.519,0.789,0.485,0.954,0.700,0.319,0.563,0.528,�쓌,2.5,��
2023/07/19,13:10,0.518,0.790,0.485,0.955,0.702,0.318,0.564,0.528,��,1.7,��
2023/07/19,13:20,0.518,0.790,0.484,0.956,0.702,0.317,0.564,0.529,��,1.4,��
2023/07/19,13:30,0.519,0.792,0.485,0.958,0.703,0.319,0.564,0.528,���쓌,2.2,�L
2023/07/19,13:40,0.519,0.791,0.483,0.958,0.704,0.319,0.565,0.529,���쓌,2.5,�L
2023/07/19,13:50,0.518,0.792,0.485,0.957,0.702,0.319,0.564,0.529,�쓌,3.6,�L
2023/07/19,14:00,0.519,0.792,0.486,0.959,0.702,0.318,0.564,0.528,�쓌,2.6,�L
2023/07/19,14:10,0.520,0.793,0.485,0.957,0.704,0.318,0.565,0.529,���쓌,2.6,��
2023/07/19,14:20,0.519,0.791,0.487,0.959,0.705,0.319,0.564,0.527,��쓌,2.0,�L
2023/07/19,14:30,0.519,0.793,0.486,0.959,0.706,0.318,0.564,0.528,���쓌,1.7,�L
2023/07/19,14:40,0.519,0.792,0.488,0.959,0.703,0.319,0.564,0.529,�쓌,2.5,�L
2023/07/19,14:50,0.521,0.791,0.488,0.961,0.704,0.318,0.563,0.529,�쓌,1.7,�L
2023/07/19,15:00,0.522,0.791,0.487,0.961,0.703,0.319,0.565,0.529,���쓌,2.0,�L
2023/07/19,15:10,0.522,0.793,0.487,0.962,0.703,0.319,0.565,0.529,���쓌,3.3,�L
2023/07/19,15:20,0.521,0.794,0.489,0.961,0.706,0.319,0.566,0.529,���쓌,3.5,�L
2023/07/19,15:30,0.520,0.795,0.487,0.961,0.705,0.320,0.564,0.529,���쓌,3.6,�L
2023/07/19,15:40,0.520,0.795,0.487,0.961,0.704,0.321,0.566,0.530,��,3.3,�L
2023/07/19,15:50,0.520,0.798,0.488,0.961,0.703,0.322,0.565,0.530,���k��,2.8,�L
2023/07/19,16:00,0.523,0.796,0.489,0.962,0.705,0.322,0.565,0.529,���k��,2.8,�L
2023/07/19,16:10,0.521,0.796,0.487,0.961,0.706,0.321,0.566,0.530,�k��,3.0,�L
2023/07/19,16:20,0.521,0.796,0.489,0.960,0.704,0.321,0.566,0.529,�k��,3.1,��
2023/07/19,16:30,0.521,0.797,0.490,0.961,0.706,0.320,0.566,0.530,�k��,3.1,�L
2023/07/19,16:40,0.523,0.794,0.487,0.960,0.706,0.322,0.565,0.532,�k��,3.3,�L
2023/07/19,16:50,0.522,0.795,0.488,0.962,0.706,0.321,0.566,0.530,�k�k��,3.3,�L
2023/07/19,17:00,0.523,0.797,0.490,0.962,0.706,0.321,0.566,0.531,�k��,4.1,��
2023/07/19,17:10,0.521,0.795,0.489,0.960,0.705,0.321,0.566,0.531,�k��,4.3,��
2023/07/19,17:20,0.523,0.797,0.489,0.962,0.704,0.322,0.567,0.532,�k��,3.6,��
2023/07/19,17:30,0.521,0.796,0.489,0.961,0.705,0.318,0.567,0.533,�k�k��,3.2,�L
2023/07/19,17:40,0.522,0.798,0.487,0.960,0.704,0.322,0.566,0.531,�k,2.3,�L
2023/07/19,17:50,0.522,0.795,0.487,0.963,0.704,0.321,0.566,0.532,�k�k��,1.2,��
2023/07/19,18:00,0.522,0.797,0.489,0.965,0.706,0.320,0.565,0.530,�k��,1.2,�L
2023/07/19,18:10,0.520,0.791,0.487,0.961,0.702,0.320,0.565,0.531,�k�k��,0.6,�L
2023/07/19,18:20,0.519,0.788,0.489,0.961,0.702,0.322,0.565,0.530,�k�k��,2.6,�L
2023/07/19,18:30,0.520,0.789,0.488,0.960,0.702,0.322,0.564,0.529,�k�k��,3.9,�L
2023/07/19,18:40,0.515,0.779,0.486,0.951,0.694,0.322,0.563,0.529,�k�k��,3.2,�L
2023/07/19,18:50,0.504,0.755,0.475,0.925,0.674,0.320,0.560,0.528,��,4.5,�L
2023/07/19,19:00,0.508,0.760,0.478,0.926,0.674,0.319,0.560,0.529,��,3.9,�L
2023/07/19,19:10,0.513,0.768,0.480,0.932,0.681,0.320,0.559,0.530,��,2.9,�L
2023/07/19,19:20,0.515,0.766,0.480,0.932,0.680,0.321,0.560,0.529,�쐼,3.7,��
2023/07/19,19:30,0.513,0.769,0.479,0.933,0.679,0.321,0.558,0.527,�쐼,2.8,��
2023/07/19,19:40,0.513,0.770,0.479,0.934,0.680,0.319,0.558,0.526,�쐼,3.6,��
2023/07/19,19:50,0.511,0.771,0.478,0.933,0.677,0.319,0.559,0.526,��쐼,4.3,��
2023/07/19,20:00,0.509,0.768,0.477,0.933,0.680,0.318,0.559,0.528,��쐼,5.2,��
2023/07/19,20:10,0.507,0.769,0.477,0.934,0.678,0.317,0.558,0.528,��쐼,4.4,��
2023/07/19,20:20,0.506,0.768,0.477,0.933,0.678,0.318,0.560,0.526,��쐼,3.1,��
2023/07/19,20:30,0.508,0.770,0.477,0.933,0.678,0.317,0.558,0.527,���쐼,1.5,��
2023/07/19,20:40,0.506,0.768,0.475,0.933,0.678,0.318,0.558,0.526,�k�k��,5.0,��
2023/07/19,20:50,0.506,0.770,0.475,0.931,0.678,0.317,0.557,0.527,�k,8.1,��
2023/07/19,21:00,0.505,0.769,0.475,0.931,0.677,0.316,0.560,0.528,�k�k��,7.4,��
2023/07/19,21:10,0.505,0.769,0.475,0.932,0.678,0.315,0.559,0.525,�k�k��,8.6,��
2023/07/19,21:20,0.505,0.769,0.474,0.932,0.679,0.315,0.559,0.527,�k�k��,8.9,��
2023/07/19,21:30,0.503,0.766,0.474,0.931,0.678,0.314,0.560,0.528,�k�k��,9.3,�L
2023/07/19,21:40,0.505,0.768,0.473,0.933,0.677,0.315,0.558,0.526,�k�k��,9.5,�L
2023/07/19,21:50,0.503,0.766,0.473,0.935,0.679,0.314,0.559,0.527,�k�k��,8.8,�L
2023/07/19,22:00,0.505,0.765,0.474,0.931,0.678,0.314,0.557,0.526,�k�k��,8.7,�L
2023/07/19,22:10,0.505,0.768,0.470,0.930,0.679,0.316,0.557,0.527,�k�k��,10.5,�L
2023/07/19,22:20,0.505,0.768,0.472,0.934,0.676,0.315,0.557,0.526,�k�k��,10.2,��
2023/07/19,22:30,0.505,0.768,0.474,0.932,0.678,0.315,0.558,0.525,�k�k��,9.9,��
2023/07/19,22:40,0.505,0.766,0.473,0.932,0.678,0.314,0.558,0.526,�k�k��,8.3,��
2023/07/19,22:50,0.504,0.768,0.475,0.934,0.679,0.314,0.558,0.525,�k�k��,8.3,��
2023/07/19,23:00,0.505,0.768,0.475,0.934,0.678,0.316,0.558,0.528,�k�k��,7.2,��
2023/07/19,23:10,0.504,0.768,0.475,0.935,0.679,0.315,0.558,0.527,�k�k��,8.0,��
2023/07/19,23:20,0.505,0.769,0.473,0.933,0.680,0.315,0.558,0.527,�k�k��,9.2,��
2023/07/19,23:30,0.505,0.768,0.474,0.934,0.680,0.315,0.559,0.527,�k�k��,8.1,��
2023/07/19,23:40,0.505,0.769,0.474,0.933,0.679,0.315,0.559,0.528,�k�k��,7.2,��
2023/07/19,23:50,0.505,0.769,0.474,0.933,0.681,0.316,0.558,0.528,�k�k��,4.7,��
